Regional Weather Roundup
Issued by NWS Upton, NY

Current Version | Previous Version | Graphics & Text | Print | Product List | Glossary Off
Versions: 1 2 3 4 5 6 7 8 9 10 11 12 13 14 15 16 17 18 19 20 21 22 23 24 25 26 27 28 29 30 31 32 33 34 35 36 37 38 39 40 41 42 43 44 45 46 47 48 49 50

000
ASUS41 KOKX 170708
RWROKX

REGIONAL WEATHER ROUNDUP
NATIONAL WEATHER SERVICE NEW YORK NY
200 AM EST FRI NOV 17 2017

NOTE: "FAIR" INDICATES FEW OR NO CLOUDS BELOW 12,000 FEET WITH NO
SIGNIFICANT WEATHER AND/OR OBSTRUCTIONS TO VISIBILITY.

NYZ071-072-176-178-NJZ106-104-170800-
NEW YORK CITY METRO AREA

CITY           SKY/WX    TMP DP  RH WIND       PRES   REMARKS
Central Park   CLEAR     43  30  60 NW10G20   29.95R
Bronx Bot Gard   N/A     43  28  56 NW3       29.93S
LaGuardia APRT PTCLDY    44  31  60 NW16      29.93R
Kennedy INTL   PTCLDY    43  31  62 NW18      29.94R
Breezy Point     N/A     43 N/A N/A NW17G25     N/A
Newark/Liberty PTCLDY    43  31  62 NW12      29.94R
Teterboro      PTCLDY    42  30  62 NW10      29.93R
$$

NYZ177-179-078>081-170800-
LONG ISLAND NEW YORK

CITY           SKY/WX    TMP DP  RH WIND       PRES   REMARKS
Jones Beach      N/A     43 N/A N/A NW21G30     N/A
Matinecock PT    N/A     45 N/A N/A W29G35      N/A
Farmingdale    PTCLDY    43  31  62 NW12G21   29.91R
MacArthur/ISP  CLEAR     43  32  65 NW15G24   29.87R
Shirley        CLEAR     44  33  65 W13G20    29.86R
Mt Sinai Harb    N/A    N/A N/A N/A W16G31      N/A
Westhampton    PTCLDY    44  31  60 W13       29.87R
East Hampton   MOCLDY    44  33  63 W9G21     29.83R
Southold       NOT AVBL
Montauk        NOT AVBL
$$

NYZ052-065-067-170800-
HUDSON VALLEY

CITY           SKY/WX    TMP DP  RH WIND       PRES   REMARKS
White Plains   MOCLDY    41  29  62 W16G28    29.89R
Larchmont Harb   N/A     43 N/A N/A W10         N/A
Croton On Huds   N/A     43 N/A N/A NW20G26     N/A
Newburgh       PTCLDY    39  30  70 W14G25    29.89S WCI  31
Montgomery     PTCLDY    40  28  62 NW13G22   29.90R WCI  32
Poughkeepsie   CLOUDY    42  28  57 W10       29.89R
Albany         MOCLDY    38  26  62 NW21G30   29.90R WCI  28
$$

NJZ001-105-106-008-010-013-015-019>022-104-170800-
NEW JERSEY

CITY           SKY/WX    TMP DP  RH WIND       PRES   REMARKS
Newark/Liberty PTCLDY    43  31  62 NW12      29.94R
Teterboro      PTCLDY    42  30  62 NW10      29.93R
Caldwell       LGT RAIN  41  32  70 NW12G20   29.95R
Somerville     CLOUDY    43  31  62 NW5       29.95R
Linden         PTSUNNY   43  32  65 NW17      29.95R
Perth Amboy      N/A     43 N/A N/A NW14        N/A
Sussex         MOCLDY    40  29  64 W7G16     29.96R
Andover        NOT AVBL
Trenton        LGT RAIN  43  33  68 NW12      29.98R
Millville      CLEAR     43  32  65 W10       30.04R
Atlantic City  CLEAR     43  31  62 W13       30.00R
Wrightstown    PTCLDY    42  31  65 NW9       29.96R
Toms River     NOT AVBL
Belmar         CLEAR     41  31  67 W10       29.96R
$$

PAZ047>061-062-071-170800-
EASTERN PENNSYLVANIA

CITY           SKY/WX    TMP DP  RH WIND       PRES   REMARKS
Philadelphia   MOCLDY    44  30  57 W15       30.02R
Allentown      CLOUDY    43  29  57 NW14G30   30.00R
Scranton       CLOUDY    39  28  64 NW16G25   29.99R WCI  30
$$

CTZ002-004>006-009-010-012-RIZ004-006-007-MAZ004-011-015-170800-
SOUTHERN NEW ENGLAND
 IN CT

CITY           SKY/WX    TMP DP  RH WIND       PRES   REMARKS
Bradley INTL   PTCLDY    40  31  70 NW10G24   29.81R WCI  33
Hartford       CLEAR     42  32  67 NW10G25   29.83R
Danbury        PTCLDY    42  29  59 W10G20    29.88R
Wtrbury/Oxford CLOUDY    39  32  76 NW9G23    29.84R WCI  33
Norwalk Harbor   N/A     43 N/A N/A W17         N/A
Bridgeport     MOCLDY    44  31  60 W13G22    29.86R
Meriden        CLOUDY    41  31  67 VRB7G17   29.84R
New Haven      PTCLDY    45  33  63 NW10G23   29.84R
Chester        FAIR      41  32  70 NW10G20   29.82R
Groton         CLEAR     43  33  68 W10       29.81R
Wilimantic     CLEAR     42  31  64 NW10G21   29.81R

 IN RI

CITY           SKY/WX    TMP DP  RH WIND       PRES   REMARKS
Providence     CLEAR     42  33  70 W17G25    29.75R
Block Island   PTCLDY    45  34  65 W20G31    29.79R
Westerly       CLEAR     42  36  79 W5        29.80R
 IN MA

CITY           SKY/WX    TMP DP  RH WIND       PRES   REMARKS
Boston         PTCLDY    41  34  76 W13       29.71R
Worcester      CLOUDY    36  28  73 W18G26    29.70R WCI  26
Westfield      CLOUDY    41  32  70 NW16G23   29.80R
Provincetown   PTCLDY    44  37  76 W22G29    29.69R
Nantucket      CLEAR     44  36  73 W18G26    29.73R
$$

ANZ330-335-338-340-345-350-353-355-170800-
COASTAL MARINE OBSERVATIONS


STATION/POSITION TIME  SKY/WX   TEMP    WIND        PRES    VSBY  WAVE
                                AIR SEA DIR/SP/G                  HT/PER
                 (UTC)          (F)     (DEG/KT/KT) (MB)    (MI)  (FT/S)
NY HARB ENTRANCE 0550            48 57  280/ 23/ 27 1011.9          4/ 4
20 S FIRE ISLAND 0550            49 58  300/ 25/ 31 1011.7          7/ 6
GREAT SOUTH BAY  0630            44 46  280/ 17/ 21   N/A
HUDSON CANYON    0550            51 60  310/ 25/ 31 1011.3         10/ 8
KINGS POINT      0636            45 52  350/ 14/ 17 1014.0
EXECUTION ROCKS  0630            46     280/ 16/ 25   N/A
WESTERN LI SOUND 0549            46     290/ 17/ 25   N/A           2/ 3
CENTRAL LI SOUND NOT AVBL
ROBBINS REEF     0636            44     310/ 18/ 24 1014.2
$$


>>>>>>>>>>>>>>>>>>>>>>>>>>>> KEY <<<<<<<<<<<<<<<<<<<<<<<<<<<
>                                                          <
>     SKY/WX - Sky Condition/Present Weather               <
>     TMP    - Temperature in Fahrenheit                   <
>     DP     - Dew Point in Fahrenheit                     <
>     RH     - Relative Humidity in Percent                <
>     WIND   - Direction (from) and Speed in MPH           <
>     PRES   - Mean Sea Level Pressure (inches of Hg)      <
>     WCI    - Wind Chill Index                            <
>     VSB    - VISIBILITY IN MILES                         <
>     HX     - HEAT INDEX                                  <
>     TC     - TEMPERATURE IN CELSIUS                      <
>     VRB    - VARIABLE WIND DIRECTION                     <
>                                                          <
>>>>>>>>>>>>>>>>>>>>>>>>>>>> KEY <<<<<<<<<<<<<<<<<<<<<<<<<<<



USA.gov is the U.S. government's official web portal to all federal, state and local government web resources and services.